Location: De Forest
(43.2480°N, 89.3440°W)
Time: 21:36:43
(UTC-05:00)

Tiangong 2 - Visible Passes

Search period start: 26 May 2019 00:00
Search period end: 05 June 2019 00:00
Orbit: 379 x 387 km, 42.8° (Epoch: 26 May)

Date Brightness Start Highest point End Pass type
(mag) Time Alt. Az. Time Alt. Az. Time Alt. Az.
26 May 1.0 20:55:45 10° W 20:58:53 84° S 21:02:01 10° E visible
26 May 1.7 22:32:29 10° W 22:35:08 41° SW 22:35:08 41° SW visible
27 May 1.1 21:32:24 10° W 21:35:30 62° SSW 21:37:41 18° ESE visible
27 May 3.8 23:09:33 10° WSW 23:09:51 11° WSW 23:09:51 11° WSW visible
28 May 2.1 22:09:11 10° W 22:11:58 29° SSW 22:12:23 28° S visible
29 May 1.6 21:09:01 10° W 21:12:02 44° SSW 21:14:56 11° SE visible
29 May 3.8 22:47:02 10° WSW 22:47:05 10° SW 22:47:05 10° SW visible
30 May 2.9 21:46:03 10° WSW 21:48:23 19° SSW 21:49:40 15° S visible
01 Jun 3.6 21:23:25 10° WSW 21:24:43 12° SW 21:26:00 10° S visible
